• Em Portugal
  • Lista de países
  • Para 7 dias
  • Temperatura da água
  • Mapas de satélite
  • Mapa do tempo
  • Widgets de tempo
  • user-avatar
    Iniciar Sessão

    Previsão horária em Belmopan

    Hoje, 23 Janeiro, Terça-feira

    Tempo Temperatura Precipitação Vento Pressão Humidade
    00:00 +21°C° 0 mm 0 m/s 753 mmHg 99%
    01:00 +21°C° 0,1 mm 0 m/s 753 mmHg 99%
    02:00 +21°C° 0,1 mm 0 m/s 753 mmHg 99%
    03:00 +21°C° 0,1 mm 0 m/s 752 mmHg 99%
    04:00 +21°C° 0,1 mm 0 m/s 753 mmHg 99%
    05:00 +21°C° 0,1 mm 0 m/s 753 mmHg 99%
    06:00 +21°C° 0,1 mm 0 m/s 753 mmHg 99%
    07:00 +22°C° 0 mm 0 m/s 753 mmHg 95%
    08:00 +23°C° 0 mm 0 m/s 754 mmHg 92%
    09:00 +24°C° 0 mm 0 m/s 754 mmHg 89%
    10:00 +28°C° 0,2 mm 1 m/s 754 mmHg 82%
    11:00 +29°C° 0,2 mm 1 m/s 754 mmHg 75%
    12:00 +30°C° 0,2 mm 1 m/s 754 mmHg 68%
    13:00 +30°C° 0,4 mm 1 m/s 753 mmHg 68%
    14:00 +30°C° 0,4 mm 2 m/s 753 mmHg 69%
    15:00 +30°C° 0,4 mm 2 m/s 752 mmHg 69%
    16:00 +29°C° 0,2 mm 1 m/s 752 mmHg 75%
    17:00 +27°C° 0,2 mm 1 m/s 752 mmHg 81%
    18:00 +25°C° 0,2 mm 1 m/s 752 mmHg 88%
    19:00 +25°C° 0,1 mm 1 m/s 753 mmHg 91%
    20:00 +24°C° 0,1 mm 1 m/s 753 mmHg 95%
    21:00 +24°C° 0,1 mm 1 m/s 754 mmHg 98%
    22:00 +23°C° 0,1 mm 1 m/s 754 mmHg 99%
    23:00 +23°C° 0,1 mm 1 m/s 754 mmHg 99%

    Amanhã, 24 Janeiro, Quarta-feira

    Tempo Temperatura Precipitação Vento Pressão Humidade
    00:00 +21°C° 0,1 mm 0 m/s 754 mmHg 99%
    01:00 +21°C° 0,2 mm 0 m/s 754 mmHg 99%
    02:00 +21°C° 0,2 mm 0 m/s 754 mmHg 99%
    03:00 +21°C° 0,2 mm 0 m/s 754 mmHg 99%
    04:00 +21°C° 0,3 mm 0 m/s 754 mmHg 99%
    05:00 +21°C° 0,3 mm 0 m/s 754 mmHg 99%
    06:00 +21°C° 0,3 mm 0 m/s 754 mmHg 99%
    07:00 +21°C° 0,2 mm 0 m/s 755 mmHg 98%
    08:00 +24°C° 0,2 mm 1 m/s 756 mmHg 97%
    09:00 +24°C° 0,2 mm 1 m/s 756 mmHg 96%
    10:00 +25°C° 0,5 mm 1 m/s 756 mmHg 91%
    11:00 +26°C° 0,5 mm 1 m/s 756 mmHg 86%
    12:00 +27°C° 0,5 mm 1 m/s 755 mmHg 81%
    13:00 +28°C° 0,4 mm 1 m/s 755 mmHg 76%
    14:00 +29°C° 0,4 mm 2 m/s 754 mmHg 71%
    15:00 +29°C° 0,4 mm 2 m/s 753 mmHg 65%
    16:00 +28°C° 0 mm 1 m/s 753 mmHg 72%
    17:00 +26°C° 0 mm 1 m/s 754 mmHg 79%
    18:00 +25°C° 0 mm 1 m/s 754 mmHg 86%
    19:00 +24°C° 0 mm 1 m/s 754 mmHg 90%
    20:00 +23°C° 0 mm 1 m/s 755 mmHg 94%
    21:00 +23°C° 0 mm 1 m/s 756 mmHg 98%
    22:00 +23°C° 0,3 mm 1 m/s 756 mmHg 98%
    23:00 +23°C° 0,3 mm 1 m/s 756 mmHg 98%

    Depois de amanhã, 25 Janeiro, Quinta-feira

    Tempo Temperatura Precipitação Vento Pressão Humidade
    00:00 +23°C° 0,3 mm 1 m/s 756 mmHg 99%
    01:00 +23°C° 0,3 mm 1 m/s 756 mmHg 99%
    02:00 +23°C° 0,3 mm 1 m/s 755 mmHg 99%
    03:00 +23°C° 0,3 mm 1 m/s 755 mmHg 99%
    04:00 +23°C° 0,3 mm 1 m/s 755 mmHg 99%
    05:00 +23°C° 0,3 mm 1 m/s 755 mmHg 99%
    06:00 +23°C° 0,3 mm 1 m/s 755 mmHg 99%
    07:00 +23°C° 0,4 mm 1 m/s 756 mmHg 98%
    08:00 +24°C° 0,4 mm 1 m/s 756 mmHg 98%
    09:00 +24°C° 0,4 mm 1 m/s 757 mmHg 97%
    10:00 +25°C° 0,5 mm 1 m/s 757 mmHg 94%
    11:00 +26°C° 0,5 mm 1 m/s 756 mmHg 92%
    12:00 +26°C° 0,5 mm 1 m/s 756 mmHg 89%
    13:00 +27°C° 0,5 mm 1 m/s 755 mmHg 87%
    14:00 +27°C° 0,5 mm 1 m/s 755 mmHg 84%
    15:00 +27°C° 0,5 mm 1 m/s 754 mmHg 81%
    16:00 +26°C° 0,6 mm 1 m/s 754 mmHg 87%
    17:00 +25°C° 0,6 mm 1 m/s 754 mmHg 92%
    18:00 +24°C° 0,6 mm 1 m/s 754 mmHg 97%
    19:00 +23°C° 0,3 mm 1 m/s 755 mmHg 98%
    20:00 +23°C° 0,3 mm 1 m/s 755 mmHg 98%
    21:00 +21°C° 0,3 mm 0 m/s 756 mmHg 99%
    22:00 +21°C° 0,9 mm 0 m/s 756 mmHg 99%
    23:00 +23°C° 0,9 mm 1 m/s 756 mmHg 99%

    26 Janeiro, Sexta-feira

    Tempo Temperatura Precipitação Vento Pressão Humidade
    00:00 +23°C° 0,9 mm 1 m/s 755 mmHg 99%
    01:00 +20°C° 1,4 mm 0 m/s 755 mmHg 99%
    02:00 +20°C° 1,4 mm 0 m/s 755 mmHg 99%
    03:00 +20°C° 1,4 mm 0 m/s 754 mmHg 99%
    04:00 +20°C° 1,9 mm 0 m/s 754 mmHg 99%
    05:00 +20°C° 1,9 mm 0 m/s 754 mmHg 99%
    06:00 +21°C° 1,9 mm 0 m/s 755 mmHg 99%
    07:00 +21°C° 1,8 mm 0 m/s 755 mmHg 98%
    08:00 +24°C° 1,8 mm 1 m/s 756 mmHg 97%
    09:00 +25°C° 1,8 mm 1 m/s 756 mmHg 96%
    10:00 +25°C° 0,7 mm 1 m/s 756 mmHg 95%
    11:00 +26°C° 0,7 mm 1 m/s 756 mmHg 94%
    12:00 +26°C° 0,7 mm 2 m/s 755 mmHg 93%
    13:00 +26°C° 0,5 mm 2 m/s 754 mmHg 94%
    14:00 +26°C° 0,5 mm 2 m/s 754 mmHg 94%
    15:00 +26°C° 0,5 mm 1 m/s 753 mmHg 95%
    16:00 +25°C° 0,5 mm 1 m/s 753 mmHg 96%
    17:00 +24°C° 0,5 mm 1 m/s 753 mmHg 97%
    18:00 +24°C° 0,5 mm 1 m/s 753 mmHg 98%
    19:00 +23°C° 1,7 mm 1 m/s 753 mmHg 99%
    20:00 +23°C° 1,7 mm 1 m/s 754 mmHg 99%
    21:00 +21°C° 1,7 mm 0 m/s 754 mmHg 99%
    22:00 +21°C° 2 mm 0 m/s 754 mmHg 99%
    23:00 +21°C° 2 mm 0 m/s 754 mmHg 99%

    27 Janeiro, Sábado

    Tempo Temperatura Precipitação Vento Pressão Humidade
    00:00 +21°C° 2 mm 0 m/s 754 mmHg 99%
    01:00 +21°C° 1,3 mm 0 m/s 753 mmHg 99%
    02:00 +21°C° 1,3 mm 0 m/s 753 mmHg 99%
    03:00 +21°C° 1,3 mm 0 m/s 753 mmHg 99%
    04:00 +21°C° 0,6 mm 0 m/s 753 mmHg 99%
    05:00 +21°C° 0,6 mm 0 m/s 753 mmHg 99%
    06:00 +21°C° 0,6 mm 0 m/s 753 mmHg 99%
    07:00 +21°C° 0,4 mm 0 m/s 754 mmHg 98%
    08:00 +22°C° 0,4 mm 0 m/s 754 mmHg 96%
    09:00 +23°C° 0,4 mm 0 m/s 755 mmHg 94%
    10:00 +24°C° 0,7 mm 0 m/s 754 mmHg 93%
    11:00 +27°C° 0,7 mm 1 m/s 754 mmHg 91%
    12:00 +27°C° 0,7 mm 1 m/s 754 mmHg 89%
    13:00 +27°C° 0,7 mm 1 m/s 753 mmHg 89%
    14:00 +27°C° 0,7 mm 1 m/s 752 mmHg 89%
    15:00 +27°C° 0,7 mm 1 m/s 751 mmHg 90%
    16:00 +26°C° 0,1 mm 1 m/s 752 mmHg 92%
    17:00 +25°C° 0,1 mm 1 m/s 752 mmHg 94%
    18:00 +24°C° 0,1 mm 1 m/s 752 mmHg 96%
    19:00 +24°C° 0 mm 1 m/s 752 mmHg 97%
    20:00 +23°C° 0 mm 1 m/s 753 mmHg 98%
    21:00 +21°C° 0 mm 0 m/s 753 mmHg 99%
    22:00 +21°C° 0 mm 0 m/s 753 mmHg 99%
    23:00 +21°C° 0 mm 0 m/s 753 mmHg 99%

    28 Janeiro, Domingo

    Tempo Temperatura Precipitação Vento Pressão Humidade
    00:00 +21°C° 0 mm 0 m/s 753 mmHg 99%
    01:00 +21°C° 0 mm 0 m/s 753 mmHg 99%
    02:00 +21°C° 0 mm 0 m/s 753 mmHg 99%
    03:00 +21°C° 0 mm 0 m/s 752 mmHg 99%
    04:00 +21°C° 0,1 mm 0 m/s 753 mmHg 99%
    05:00 +21°C° 0,1 mm 0 m/s 753 mmHg 99%
    06:00 +21°C° 0,1 mm 0 m/s 754 mmHg 99%
    07:00 +22°C° 0,1 mm 0 m/s 754 mmHg 97%
    08:00 +24°C° 0,1 mm 1 m/s 755 mmHg 96%
    09:00 +25°C° 0,1 mm 1 m/s 755 mmHg 94%
    10:00 +26°C° 0,2 mm 1 m/s 755 mmHg 88%
    11:00 +27°C° 0,2 mm 1 m/s 754 mmHg 82%
    12:00 +28°C° 0,2 mm 1 m/s 754 mmHg 77%
    13:00 +28°C° 0,9 mm 1 m/s 753 mmHg 82%
    14:00 +28°C° 0,9 mm 1 m/s 752 mmHg 87%
    15:00 +27°C° 0,9 mm 1 m/s 752 mmHg 93%
    16:00 +26°C° 0,6 mm 1 m/s 752 mmHg 95%
    17:00 +25°C° 0,6 mm 1 m/s 752 mmHg 96%
    18:00 +24°C° 0,6 mm 1 m/s 753 mmHg 98%
    19:00 +24°C° 0,1 mm 1 m/s 753 mmHg 98%
    20:00 +22°C° 0,1 mm 0 m/s 754 mmHg 98%
    21:00 +21°C° 0,1 mm 0 m/s 754 mmHg 99%
    22:00 +21°C° 0,3 mm 0 m/s 754 mmHg 99%
    23:00 +21°C° 0,3 mm 0 m/s 754 mmHg 99%
    Mostrar mais